TimeEDT,TemperatureF,Dew PointF,Humidity,Sea Level PressureIn,VisibilityMPH,Wind Direction,Wind SpeedMPH,Gust SpeedMPH,PrecipitationIn,Events,Conditions,WindDirDegrees,DateUTC
12:14 AM,70.7,66.6,87,29.86,10.0,West,10.4,-,N/A,,Scattered Clouds,260,2013-09-20 04:14:00
12:34 AM,70.7,66.7,87,29.88,10.0,NW,9.2,-,N/A,,Mostly Cloudy,310,2013-09-20 04:34:00
12:54 AM,70.7,66.6,87,29.87,10.0,NW,3.5,-,N/A,,Overcast,310,2013-09-20 04:54:00
1:14 AM,70.2,66.7,89,29.85,10.0,SSW,5.8,-,N/A,,Overcast,200,2013-09-20 05:14:00
1:34 AM,70.9,67.3,88,29.84,10.0,South,5.8,-,0.02,Rain,Light Rain,180,2013-09-20 05:34:00
1:54 AM,70.0,67.8,93,29.84,7.0,SSE,5.8,-,0.05,,Mostly Cloudy,160,2013-09-20 05:54:00
2:14 AM,69.8,68.0,94,29.84,7.0,South,5.8,-,N/A,,Clear,180,2013-09-20 06:14:00
2:34 AM,69.8,68.0,94,29.84,7.0,South,4.6,-,N/A,,Scattered Clouds,180,2013-09-20 06:34:00
2:54 AM,70.2,68.2,93,29.83,7.0,South,4.6,-,N/A,,Scattered Clouds,190,2013-09-20 06:54:00
3:14 AM,70.9,68.9,93,29.82,7.0,SSW,6.9,-,N/A,,Mostly Cloudy,210,2013-09-20 07:14:00
3:34 AM,71.6,69.1,92,29.81,7.0,SSW,9.2,-,N/A,,Mostly Cloudy,210,2013-09-20 07:34:00
3:54 AM,71.8,69.3,92,29.80,7.0,SSW,10.4,-,N/A,,Mostly Cloudy,200,2013-09-20 07:54:00
4:14 AM,71.8,69.3,92,29.80,7.0,SSW,9.2,16.1,N/A,,Scattered Clouds,210,2013-09-20 08:14:00
4:34 AM,71.8,69.6,93,29.80,7.0,SSW,10.4,-,N/A,,Scattered Clouds,200,2013-09-20 08:34:00
4:54 AM,71.6,69.4,93,29.79,7.0,SSW,11.5,-,N/A,,Scattered Clouds,200,2013-09-20 08:54:00
5:14 AM,71.2,69.4,94,29.79,5.0,SSW,8.1,-,N/A,,Clear,200,2013-09-20 09:14:00
5:34 AM,70.9,69.3,95,29.79,5.0,SSW,8.1,-,N/A,,Clear,200,2013-09-20 09:34:00
5:54 AM,70.7,69.1,95,29.79,5.0,South,6.9,-,N/A,,Scattered Clouds,190,2013-09-20 09:54:00
6:14 AM,70.7,69.3,95,29.78,4.0,SSW,5.8,-,N/A,,Mostly Cloudy,210,2013-09-20 10:14:00
6:34 AM,70.7,69.4,96,29.78,4.0,South,8.1,-,N/A,,Scattered Clouds,190,2013-09-20 10:34:00
6:54 AM,71.1,69.8,96,29.78,5.0,SSW,9.2,-,N/A,,Scattered Clouds,200,2013-09-20 10:54:00
7:14 AM,71.1,69.8,96,29.78,5.0,SSW,6.9,-,N/A,,Scattered Clouds,210,2013-09-20 11:14:00
7:34 AM,71.1,69.8,96,29.79,4.0,North,-9999.0,-,N/A,,Mostly Cloudy,0,2013-09-20 11:34:00
7:52 AM,71.2,69.8,95,29.80,3.0,WSW,10.4,-,N/A,,Overcast,240,2013-09-20 11:52:00
8:14 AM,72.0,70.2,94,29.81,4.0,WSW,11.5,16.1,N/A,Rain,Light Rain,240,2013-09-20 12:14:00
8:34 AM,72.0,69.8,93,29.81,5.0,North,-9999.0,-,N/A,,Overcast,0,2013-09-20 12:34:00
8:54 AM,71.8,69.8,93,29.80,5.0,SW,6.9,-,N/A,,Overcast,230,2013-09-20 12:54:00
9:14 AM,72.1,69.4,91,29.80,7.0,SW,8.1,-,N/A,,Scattered Clouds,230,2013-09-20 13:14:00
9:34 AM,72.3,69.3,90,29.81,7.0,SW,9.2,-,N/A,,Scattered Clouds,230,2013-09-20 13:34:00
9:54 AM,72.9,67.6,84,29.81,10.0,SW,13.8,-,N/A,,Mostly Cloudy,230,2013-09-20 13:54:00
10:14 AM,72.3,66.4,82,29.81,10.0,WSW,10.4,16.1,N/A,,Overcast,240,2013-09-20 14:14:00
10:34 AM,72.5,65.5,79,29.81,10.0,SW,13.8,20.7,N/A,,Overcast,230,2013-09-20 14:34:00
10:54 AM,72.1,65.5,79,29.81,10.0,WSW,16.1,20.7,N/A,,Overcast,240,2013-09-20 14:54:00
11:14 AM,72.5,65.5,79,29.81,10.0,WSW,10.4,15.0,N/A,,Mostly Cloudy,240,2013-09-20 15:14:00
11:34 AM,72.1,65.3,79,29.81,7.0,WSW,12.7,-,N/A,,Overcast,240,2013-09-20 15:34:00
11:54 AM,72.1,65.1,78,29.80,10.0,WSW,13.8,17.3,N/A,,Overcast,240,2013-09-20 15:54:00
12:14 PM,72.5,64.9,77,29.80,10.0,WSW,12.7,-,N/A,,Mostly Cloudy,240,2013-09-20 16:14:00
12:34 PM,72.1,64.6,77,29.79,10.0,WSW,12.7,21.9,N/A,,Overcast,240,2013-09-20 16:34:00
12:54 PM,72.5,65.1,78,29.79,10.0,SW,13.8,19.6,N/A,,Overcast,230,2013-09-20 16:54:00
1:14 PM,71.8,64.6,78,29.79,10.0,SW,12.7,17.3,N/A,,Overcast,230,2013-09-20 17:14:00
1:34 PM,71.6,64.6,78,29.79,10.0,WSW,12.7,16.1,N/A,,Overcast,240,2013-09-20 17:34:00
1:54 PM,71.6,64.9,79,29.78,10.0,SW,13.8,-,N/A,,Overcast,230,2013-09-20 17:54:00
2:14 PM,72.0,64.8,78,29.78,10.0,WSW,12.7,18.4,N/A,,Overcast,240,2013-09-20 18:14:00
2:34 PM,71.4,64.4,78,29.78,10.0,WSW,13.8,-,N/A,,Overcast,240,2013-09-20 18:34:00
2:54 PM,72.0,64.6,77,29.77,10.0,WSW,15.0,-,N/A,,Overcast,240,2013-09-20 18:54:00
3:14 PM,71.6,64.4,78,29.77,10.0,WSW,12.7,19.6,N/A,,Overcast,240,2013-09-20 19:14:00
3:34 PM,71.6,64.6,78,29.77,10.0,West,13.8,18.4,N/A,,Overcast,260,2013-09-20 19:34:00
3:54 PM,71.6,64.8,79,29.77,10.0,WSW,12.7,-,N/A,,Overcast,250,2013-09-20 19:54:00
4:14 PM,71.6,64.9,79,29.76,10.0,West,13.8,17.3,N/A,,Overcast,260,2013-09-20 20:14:00
4:34 PM,71.1,64.8,80,29.76,10.0,WSW,9.2,-,N/A,,Overcast,240,2013-09-20 20:34:00
4:54 PM,71.1,65.1,81,29.76,7.0,WSW,10.4,-,N/A,,Overcast,250,2013-09-20 20:54:00
5:14 PM,70.9,64.9,81,29.75,10.0,WSW,10.4,-,N/A,,Overcast,240,2013-09-20 21:14:00
5:34 PM,70.9,64.8,81,29.75,10.0,WSW,10.4,-,N/A,,Overcast,240,2013-09-20 21:34:00
5:54 PM,70.9,64.6,80,29.75,10.0,WSW,10.4,-,N/A,,Overcast,250,2013-09-20 21:54:00
6:14 PM,70.7,64.6,81,29.75,10.0,West,9.2,-,N/A,,Overcast,260,2013-09-20 22:14:00
6:34 PM,70.2,64.6,82,29.75,10.0,West,9.2,-,N/A,,Overcast,260,2013-09-20 22:34:00
6:54 PM,69.8,64.6,83,29.74,10.0,West,6.9,-,N/A,,Mostly Cloudy,270,2013-09-20 22:54:00
7:14 PM,69.3,64.6,85,29.74,10.0,West,6.9,-,N/A,,Scattered Clouds,260,2013-09-20 23:14:00
7:34 PM,68.9,64.9,87,29.74,10.0,WSW,5.8,-,N/A,,Scattered Clouds,250,2013-09-20 23:34:00
7:54 PM,68.2,64.9,89,29.74,10.0,WSW,5.8,-,N/A,,Scattered Clouds,250,2013-09-20 23:54:00
8:14 PM,68.0,64.8,89,29.74,10.0,WSW,4.6,-,N/A,,Scattered Clouds,250,2013-09-21 00:14:00
8:34 PM,67.5,64.8,91,29.74,10.0,WSW,4.6,-,N/A,,Clear,240,2013-09-21 00:34:00
8:54 PM,67.5,64.9,92,29.74,10.0,SW,4.6,-,N/A,,Clear,230,2013-09-21 00:54:00
9:14 PM,67.3,64.8,92,29.74,10.0,SW,4.6,-,N/A,,Clear,220,2013-09-21 01:14:00
9:34 PM,67.1,64.8,92,29.75,10.0,SW,6.9,-,N/A,,Scattered Clouds,230,2013-09-21 01:34:00
9:54 PM,67.1,64.6,92,29.75,10.0,WSW,8.1,-,N/A,,Scattered Clouds,240,2013-09-21 01:54:00
10:14 PM,66.7,64.0,91,29.74,10.0,West,8.1,-,N/A,,Clear,260,2013-09-21 02:14:00
10:34 PM,66.7,63.5,89,29.74,10.0,West,11.5,-,N/A,,Mostly Cloudy,270,2013-09-21 02:34:00
10:54 PM,66.6,62.8,88,29.75,10.0,West,11.5,16.1,N/A,,Overcast,270,2013-09-21 02:54:00
11:14 PM,66.4,61.9,85,29.75,10.0,West,15.0,-,N/A,,Overcast,280,2013-09-21 03:14:00
11:34 PM,65.7,60.1,82,29.76,10.0,West,11.5,-,N/A,,Overcast,280,2013-09-21 03:34:00
11:54 PM,65.3,59.7,82,29.76,10.0,West,10.4,-,N/A,,Overcast,280,2013-09-21 03:54:00